This is the latest recevied weather packets stored in our database for station/object dl1wer-13. If no packets are shown the sender has not sent any weather packets the latest 10 day(s).
| Time | Temp. | Humidity | Pressure | Rain* | Wind** | Luminosity | Snow |
|---|---|---|---|---|---|---|---|
| 1777545017 | 12.78° C | 30% | 1050.8 hPa | 0 mm | - | - | - |
| 1777544416 | 12.22° C | 32% | 1050.7 hPa | 0 mm | - | - | - |
| 1777543817 | 11.67° C | 33% | 1050.9 hPa | 0 mm | - | - | - |
| 1777543217 | 11.67° C | 33% | 1050.9 hPa | 0 mm | - | - | - |
| 1777542617 | 11.67° C | 34% | 1050.8 hPa | 0 mm | - | - | - |
| 1777542017 | 11.11° C | 34% | 1051.2 hPa | 0 mm | - | - | - |
| 1777541419 | 11.11° C | 35% | 1051 hPa | 0 mm | - | - | - |
| 1777540818 | 10.56° C | 35% | 1051.3 hPa | 0 mm | - | - | - |
| 1777540218 | 10° C | 35% | 1051.2 hPa | 0 mm | - | - | - |
| 1777539617 | 10° C | 36% | 1051.2 hPa | 0 mm | - | - | - |
| 1777539017 | 9.44° C | 36% | 1050.9 hPa | 0 mm | - | - | - |
| 1777538416 | 9.44° C | 36% | 1051.1 hPa | 0 mm | - | - | - |
| 1777537817 | 9.44° C | 38% | 1051.1 hPa | 0 mm | - | - | - |
| 1777537216 | 8.89° C | 37% | 1051.1 hPa | 0 mm | - | - | - |
| 1777536617 | 8.33° C | 38% | 1051.1 hPa | 0 mm | - | - | - |
| 1777536017 | 8.33° C | 39% | 1051.1 hPa | 0 mm | - | - | - |
| 1777535417 | 8.33° C | 39% | 1051 hPa | 0 mm | - | - | - |
| 1777534816 | 7.78° C | 40% | 1050.8 hPa | 0 mm | - | - | - |
| 1777534217 | 7.78° C | 39% | 1050.7 hPa | 0 mm | - | - | - |
| 1777533616 | 7.78° C | 39% | 1050.9 hPa | 0 mm | - | - | - |
| 1777533016 | 7.78° C | 40% | 1050.9 hPa | 0 mm | - | - | - |
| 1777532417 | 7.22° C | 44% | 1051.1 hPa | 0 mm | - | - | - |
| 1777531817 | 6.67° C | 44% | 1050.9 hPa | 0 mm | - | - | - |
| 1777531216 | 6.67° C | 43% | 1050.9 hPa | 0 mm | - | - | - |
| 1777530617 | 6.11° C | 44% | 1051 hPa | 0 mm | - | - | - |
* Rain latest hour (hover to see other rain measurements)
** Current wind speed in m/s (hover to see current wind gust speed)